SL-8 R/B

Last updated on Mon Sep 21 2026 00:02:08 GMT+0000 (Coordinated Universal Time)

1 21938U 92020B 26263.41687235 .00000065 00000+0 51716-4 0 9995 2 21938 82.9347 9.1100 0030349 113.4284 317.3628 13.75560590727907
UTC large
Height (km)
Speed (km/s)
/
Latitude / Longitude
Inclination (degrees)
Orbital Period (minutes)
Azimuth
Elevation
Range (km)
Doppler Factor

Next 0 passes for location: London (51.5072 / 0.1276)

No passes found over London.
SL-8 R/B